�������l�o���
Date,Time,MP-1(��Sv/h),MP-2(��Sv/h),MP-3(��Sv/h),MP-4(��Sv/h),MP-5(��Sv/h),MP-6(��Sv/h),MP-7(��Sv/h),MP-8(��Sv/h),����,����(m/s),���J
2023/07/26,00:00,0.539,0.820,0.497,0.981,0.727,0.327,0.575,0.537,��쐼,0.9,��
2023/07/26,00:10,0.538,0.817,0.496,0.982,0.730,0.329,0.572,0.538,�쐼,0.9,��
2023/07/26,00:20,0.539,0.818,0.496,0.982,0.729,0.329,0.574,0.539,�k��,0.6,��
2023/07/26,00:30,0.537,0.820,0.496,0.982,0.730,0.327,0.574,0.540,-,CALM,��
2023/07/26,00:40,0.538,0.818,0.497,0.981,0.729,0.327,0.575,0.538,�k��,0.8,��
2023/07/26,00:50,0.539,0.817,0.497,0.981,0.728,0.329,0.576,0.539,���k��,1.7,��
2023/07/26,01:00,0.539,0.817,0.497,0.982,0.727,0.328,0.574,0.539,���k��,3.8,��
2023/07/26,01:10,0.538,0.819,0.497,0.982,0.727,0.328,0.574,0.537,�k��,4.2,��
2023/07/26,01:20,0.538,0.819,0.497,0.983,0.728,0.327,0.574,0.536,�k��,4.7,��
2023/07/26,01:30,0.538,0.818,0.497,0.982,0.730,0.327,0.574,0.538,�k��,4.6,��
2023/07/26,01:40,0.539,0.819,0.496,0.981,0.725,0.328,0.573,0.538,�k��,4.8,��
2023/07/26,01:50,0.539,0.817,0.497,0.983,0.728,0.329,0.572,0.539,�k��,4.3,��
2023/07/26,02:00,0.538,0.819,0.496,0.978,0.728,0.326,0.574,0.537,�k��,5.4,��
2023/07/26,02:10,0.538,0.818,0.497,0.980,0.731,0.327,0.574,0.537,�k��,5.8,��
2023/07/26,02:20,0.539,0.817,0.496,0.981,0.729,0.327,0.575,0.537,�k��,5.3,��
2023/07/26,02:30,0.539,0.818,0.497,0.982,0.726,0.328,0.574,0.537,�k��,4.3,��
2023/07/26,02:40,0.537,0.816,0.497,0.981,0.726,0.327,0.573,0.538,�k��,3.3,��
2023/07/26,02:50,0.541,0.818,0.495,0.983,0.727,0.327,0.574,0.538,�k��,2.0,��
2023/07/26,03:00,0.539,0.819,0.496,0.982,0.729,0.328,0.573,0.539,�k��,2.6,��
2023/07/26,03:10,0.538,0.819,0.497,0.982,0.729,0.327,0.574,0.538,�k��,3.3,��
2023/07/26,03:20,0.539,0.817,0.495,0.982,0.728,0.328,0.574,0.537,�k��,3.7,��
2023/07/26,03:30,0.539,0.817,0.494,0.982,0.729,0.327,0.573,0.538,�k��,3.9,��
2023/07/26,03:40,0.537,0.821,0.496,0.982,0.729,0.327,0.573,0.537,�k��,2.5,��
2023/07/26,03:50,0.539,0.818,0.497,0.982,0.730,0.328,0.573,0.539,���k��,1.1,��
2023/07/26,04:00,0.540,0.819,0.494,0.980,0.729,0.328,0.574,0.539,�k��,2.3,��
2023/07/26,04:10,0.539,0.818,0.497,0.981,0.728,0.327,0.574,0.537,�k��,2.5,��
2023/07/26,04:20,0.539,0.818,0.497,0.982,0.728,0.327,0.572,0.537,�k��,3.8,��
2023/07/26,04:30,0.538,0.819,0.498,0.981,0.728,0.327,0.575,0.537,�k��,4.2,��
2023/07/26,04:40,0.538,0.817,0.496,0.983,0.728,0.327,0.574,0.539,�k��,3.7,��
2023/07/26,04:50,0.538,0.820,0.497,0.984,0.730,0.326,0.575,0.537,�k��,2.3,��
2023/07/26,05:00,0.539,0.820,0.497,0.983,0.729,0.327,0.574,0.537,�k��,1.9,��
2023/07/26,05:10,0.540,0.819,0.497,0.983,0.727,0.326,0.573,0.538,�쐼,0.9,��
2023/07/26,05:20,0.539,0.819,0.498,0.983,0.729,0.327,0.575,0.538,��쐼,1.1,��
2023/07/26,05:30,0.539,0.819,0.497,0.982,0.729,0.327,0.574,0.538,��쓌,1.2,��
2023/07/26,05:40,0.539,0.818,0.498,0.983,0.728,0.327,0.573,0.538,��,1.2,��
2023/07/26,05:50,0.540,0.819,0.497,0.985,0.727,0.327,0.574,0.538,��쐼,1.1,��
2023/07/26,06:00,0.537,0.818,0.497,0.982,0.729,0.327,0.575,0.539,��,0.6,��
2023/07/26,06:10,0.538,0.817,0.497,0.986,0.730,0.327,0.575,0.538,��,0.6,��
2023/07/26,06:20,0.538,0.819,0.497,0.983,0.728,0.328,0.574,0.539,-,CALM,��
2023/07/26,06:30,0.539,0.819,0.497,0.983,0.728,0.328,0.575,0.540,�k��,0.6,��
2023/07/26,06:40,0.540,0.816,0.498,0.982,0.726,0.327,0.575,0.540,-,CALM,��
2023/07/26,06:50,0.538,0.815,0.497,0.981,0.729,0.328,0.576,0.538,�k,0.9,��
2023/07/26,07:00,0.539,0.818,0.498,0.982,0.728,0.327,0.574,0.540,�k�k��,1.7,��
2023/07/26,07:10,0.538,0.817,0.496,0.984,0.727,0.327,0.576,0.538,�k�k��,2.3,��
2023/07/26,07:20,0.538,0.819,0.497,0.982,0.728,0.327,0.575,0.538,�k�k��,2.0,��
2023/07/26,07:30,0.537,0.816,0.497,0.979,0.727,0.327,0.574,0.540,�k�k��,2.0,��
2023/07/26,07:40,0.537,0.817,0.496,0.983,0.727,0.327,0.576,0.538,�k�k��,1.7,��
2023/07/26,07:50,0.539,0.818,0.497,0.981,0.727,0.328,0.576,0.539,�k,2.2,��
2023/07/26,08:00,0.539,0.818,0.495,0.981,0.729,0.327,0.576,0.538,�k��,2.0,��
2023/07/26,08:10,0.538,0.816,0.496,0.983,0.728,0.327,0.578,0.540,���k��,1.7,��
2023/07/26,08:20,0.537,0.817,0.496,0.981,0.729,0.326,0.577,0.538,���k��,1.7,��
2023/07/26,08:30,0.540,0.817,0.495,0.985,0.725,0.327,0.576,0.537,���k��,2.0,��
2023/07/26,08:40,0.538,0.816,0.495,0.983,0.729,0.325,0.578,0.539,��,2.3,��
2023/07/26,08:50,0.539,0.817,0.496,0.982,0.726,0.323,0.575,0.537,��,2.3,��
2023/07/26,09:00,0.538,0.815,0.497,0.984,0.727,0.325,0.575,0.536,��,2.8,��
2023/07/26,09:10,0.539,0.818,0.495,0.981,0.728,0.326,0.575,0.538,���쓌,2.6,��
2023/07/26,09:20,0.537,0.818,0.495,0.981,0.729,0.325,0.575,0.537,���쓌,3.0,��
2023/07/26,09:30,0.539,0.818,0.496,0.983,0.728,0.325,0.575,0.537,���쓌,1.9,��
2023/07/26,09:40,0.538,0.818,0.495,0.983,0.731,0.325,0.575,0.537,�쓌,2.8,��
2023/07/26,09:50,0.538,0.818,0.496,0.980,0.731,0.326,0.574,0.537,�쓌,2.3,��
2023/07/26,10:00,0.540,0.820,0.497,0.983,0.730,0.326,0.576,0.537,���쓌,2.0,��
2023/07/26,10:10,0.537,0.821,0.497,0.983,0.731,0.326,0.573,0.537,�쓌,1.7,��
2023/07/26,10:20,0.539,0.821,0.498,0.984,0.733,0.325,0.575,0.537,�쓌,2.2,��
2023/07/26,10:30,0.538,0.823,0.500,0.982,0.732,0.326,0.574,0.536,�쓌,2.6,��
2023/07/26,10:40,0.539,0.821,0.498,0.985,0.732,0.326,0.574,0.539,�쓌,2.8,��
2023/07/26,10:50,0.540,0.821,0.501,0.985,0.733,0.327,0.574,0.538,�쓌,3.2,��
2023/07/26,11:00,0.539,0.821,0.498,0.985,0.732,0.323,0.576,0.539,�쓌,3.3,��
2023/07/26,11:10,0.539,0.821,0.500,0.982,0.732,0.323,0.574,0.539,�쓌,3.1,��
2023/07/26,11:20,0.542,0.823,0.498,0.984,0.732,0.324,0.576,0.539,�쓌,3.8,��
2023/07/26,11:30,0.541,0.824,0.497,0.983,0.733,0.325,0.574,0.540,�쓌,3.7,��
2023/07/26,11:40,0.541,0.823,0.498,0.982,0.731,0.326,0.574,0.539,�쓌,3.3,��
2023/07/26,11:50,0.541,0.823,0.498,0.985,0.733,0.326,0.576,0.541,�쓌,2.9,��
2023/07/26,12:00,0.544,0.822,0.499,0.985,0.733,0.325,0.575,0.540,�쓌,3.0,��
2023/07/26,12:10,0.544,0.820,0.500,0.982,0.732,0.324,0.574,0.540,��쓌,4.7,��
2023/07/26,12:20,0.542,0.823,0.497,0.982,0.733,0.325,0.574,0.541,�쓌,4.8,��
2023/07/26,12:30,0.542,0.822,0.500,0.984,0.732,0.325,0.574,0.541,�쓌,4.7,��
2023/07/26,12:40,0.543,0.823,0.499,0.984,0.732,0.326,0.574,0.541,��쓌,4.8,��
2023/07/26,12:50,0.542,0.823,0.498,0.983,0.730,0.324,0.574,0.542,�쓌,5.1,��
2023/07/26,13:00,0.540,0.822,0.498,0.985,0.733,0.325,0.577,0.540,�쓌,5.3,��
2023/07/26,13:10,0.541,0.823,0.500,0.984,0.734,0.325,0.576,0.540,��쓌,4.6,��
2023/07/26,13:20,0.542,0.821,0.501,0.987,0.733,0.325,0.577,0.541,��쓌,4.7,��
2023/07/26,13:30,0.541,0.824,0.500,0.985,0.733,0.324,0.577,0.541,�쓌,5.7,��
2023/07/26,13:40,0.542,0.821,0.499,0.985,0.733,0.324,0.577,0.541,�쓌,5.2,��
2023/07/26,13:50,0.542,0.822,0.501,0.983,0.732,0.324,0.578,0.539,�쓌,5.6,��
2023/07/26,14:00,0.542,0.821,0.501,0.984,0.732,0.326,0.577,0.538,��쓌,5.1,��
2023/07/26,14:10,0.542,0.823,0.500,0.984,0.735,0.327,0.576,0.541,�쓌,4.2,��
2023/07/26,14:20,0.542,0.824,0.501,0.985,0.736,0.326,0.578,0.540,�쓌,4.8,��
2023/07/26,14:30,0.541,0.822,0.501,0.984,0.735,0.326,0.577,0.540,�쓌,4.4,��
2023/07/26,14:40,0.542,0.824,0.501,0.987,0.733,0.326,0.576,0.539,��쓌,3.7,��
2023/07/26,14:50,0.540,0.826,0.503,0.986,0.736,0.327,0.578,0.540,��쓌,3.9,��
2023/07/26,15:00,0.542,0.825,0.501,0.986,0.735,0.327,0.576,0.540,��쓌,3.9,��
2023/07/26,15:10,0.542,0.824,0.503,0.986,0.735,0.326,0.579,0.537,��쓌,5.0,��
2023/07/26,15:20,0.543,0.824,0.500,0.986,0.736,0.326,0.577,0.540,��쓌,3.5,��
2023/07/26,15:30,0.543,0.826,0.500,0.985,0.737,0.326,0.576,0.539,��쓌,4.4,��
2023/07/26,15:40,0.541,0.824,0.503,0.989,0.735,0.328,0.577,0.539,��쓌,4.4,��
2023/07/26,15:50,0.543,0.823,0.503,0.990,0.735,0.326,0.576,0.539,��쓌,4.4,��
2023/07/26,16:00,0.543,0.825,0.501,0.991,0.734,0.328,0.577,0.538,��쓌,4.2,��
2023/07/26,16:10,0.542,0.823,0.501,0.989,0.735,0.328,0.577,0.539,��쓌,3.8,��
2023/07/26,16:20,0.543,0.823,0.500,0.990,0.736,0.325,0.577,0.537,��쓌,4.4,��
2023/07/26,16:30,0.543,0.823,0.500,0.989,0.733,0.326,0.576,0.540,��쓌,4.4,��
2023/07/26,16:40,0.543,0.825,0.501,0.989,0.735,0.327,0.576,0.539,��쓌,3.1,��
2023/07/26,16:50,0.542,0.823,0.501,0.990,0.734,0.326,0.574,0.540,��쓌,2.0,��
2023/07/26,17:00,0.540,0.824,0.499,0.989,0.733,0.328,0.574,0.540,��쓌,4.2,��
2023/07/26,17:10,0.542,0.824,0.500,0.991,0.734,0.326,0.574,0.539,��쓌,2.6,��
2023/07/26,17:20,0.541,0.824,0.499,0.991,0.734,0.326,0.574,0.538,��쓌,4.5,��
2023/07/26,17:30,0.544,0.823,0.500,0.991,0.735,0.326,0.576,0.540,��,5.8,��
2023/07/26,17:40,0.542,0.824,0.501,0.990,0.734,0.326,0.575,0.538,��쓌,5.8,��
2023/07/26,17:50,0.541,0.822,0.501,0.989,0.734,0.326,0.574,0.539,��,4.5,��
2023/07/26,18:00,0.542,0.826,0.501,0.989,0.733,0.326,0.576,0.537,��,4.2,��
2023/07/26,18:10,0.541,0.824,0.503,0.988,0.734,0.327,0.574,0.539,��,4.7,��
2023/07/26,18:20,0.540,0.824,0.501,0.988,0.734,0.325,0.574,0.538,��,4.6,��
2023/07/26,18:30,0.539,0.824,0.501,0.987,0.734,0.326,0.574,0.537,��,4.1,��
2023/07/26,18:40,0.541,0.824,0.501,0.991,0.734,0.325,0.575,0.538,��,5.0,��
2023/07/26,18:50,0.540,0.823,0.500,0.988,0.733,0.327,0.575,0.538,��,4.4,��
2023/07/26,19:00,0.543,0.824,0.500,0.989,0.732,0.325,0.575,0.539,��,4.6,��
2023/07/26,19:10,0.540,0.824,0.499,0.988,0.732,0.326,0.573,0.540,��,5.3,��
2023/07/26,19:20,0.539,0.821,0.500,0.989,0.734,0.327,0.572,0.537,��,4.9,��
2023/07/26,19:30,0.540,0.822,0.500,0.991,0.733,0.327,0.574,0.537,��,3.4,��
2023/07/26,19:40,0.540,0.823,0.500,0.987,0.732,0.327,0.575,0.537,��,3.8,��
2023/07/26,19:50,0.541,0.823,0.500,0.991,0.732,0.326,0.575,0.539,��,4.0,��
2023/07/26,20:00,0.541,0.823,0.499,0.991,0.735,0.325,0.577,0.539,��,3.7,��
2023/07/26,20:10,0.542,0.823,0.500,0.989,0.734,0.326,0.574,0.539,��,3.1,��
2023/07/26,20:20,0.539,0.821,0.500,0.988,0.734,0.326,0.574,0.537,��쐼,3.0,��
2023/07/26,20:30,0.541,0.823,0.500,0.989,0.733,0.328,0.575,0.539,��쐼,2.3,��
2023/07/26,20:40,0.543,0.824,0.498,0.990,0.734,0.326,0.574,0.539,�쐼,2.3,��
2023/07/26,20:50,0.541,0.822,0.501,0.988,0.732,0.326,0.573,0.539,�쐼,2.2,��
2023/07/26,21:00,0.543,0.823,0.500,0.989,0.735,0.325,0.574,0.538,�쐼,1.9,��
2023/07/26,21:10,0.541,0.824,0.500,0.990,0.736,0.327,0.574,0.539,�쐼,2.8,��
2023/07/26,21:20,0.542,0.827,0.502,0.987,0.736,0.327,0.575,0.539,�쐼,3.6,��
2023/07/26,21:30,0.542,0.823,0.502,0.991,0.737,0.328,0.576,0.538,�쐼,4.1,��
2023/07/26,21:40,0.541,0.823,0.501,0.991,0.735,0.327,0.575,0.539,�쐼,4.5,��
2023/07/26,21:50,0.541,0.825,0.501,0.991,0.734,0.328,0.576,0.540,�쐼,5.0,��
2023/07/26,22:00,0.541,0.824,0.500,0.993,0.733,0.327,0.576,0.539,�쐼,5.0,��
2023/07/26,22:10,0.543,0.824,0.501,0.990,0.733,0.326,0.574,0.539,��쐼,5.8,��
2023/07/26,22:20,0.540,0.822,0.500,0.991,0.733,0.328,0.574,0.538,��쐼,5.4,��
2023/07/26,22:30,0.541,0.822,0.501,0.988,0.733,0.327,0.575,0.539,��쐼,4.9,��
2023/07/26,22:40,0.541,0.822,0.499,0.991,0.732,0.326,0.574,0.540,��쐼,4.3,��
2023/07/26,22:50,0.542,0.822,0.500,0.988,0.734,0.328,0.576,0.539,��쐼,3.6,��
2023/07/26,23:00,0.540,0.822,0.500,0.990,0.734,0.327,0.575,0.538,�쐼,2.8,��
2023/07/26,23:10,0.542,0.820,0.500,0.989,0.731,0.327,0.575,0.540,�쐼,1.9,��
2023/07/26,23:20,0.541,0.821,0.501,0.988,0.734,0.327,0.576,0.538,�쐼,1.4,��
2023/07/26,23:30,0.542,0.824,0.500,0.990,0.732,0.328,0.576,0.541,��,1.4,��
2023/07/26,23:40,0.542,0.824,0.500,0.991,0.731,0.328,0.574,0.540,�쐼,0.6,��
2023/07/26,23:50,0.541,0.823,0.502,0.990,0.734,0.329,0.576,0.541,-,CALM,��
